Location: Balsareny
(41.8670°N, 1.8830°E)
Time: 12:06:11
(UTC+01:00)

Envisat - Pass Details

Date: 02 December 2021
Orbit: 764 x 766 km, 98.2° (Epoch: 16 January)

Event Time Altitude Azimuth Distance (km) Brightness Sun altitude
Rises 06:06:42 0° 10° (N) 3,241 6.2 -20.8°
Reaches altitude 10° 06:09:01 10° 9° (N) 2,310 5.4 -20.4°
Maximum altitude 06:14:05 73° 286° (WNW) 801 2.9 -19.5°
Drops below altitude 10° 06:19:07 10° 202° (SSW) 2,293 5.4 -18.6°
Sets 06:21:25 0° 200° (SSW) 3,215 6.2 -18.1°
